Header for Extended Forecast Station List Page

Search by: ID | Name | Date | Parm | Value | Avg | % Avg
Sort by: ID | Name | Date | Parm | Value | Avg | % Avg

Enter search or view all records.

Click on id for station plot
#IDNameDateParmValueAvg% Avg
0RIDI1WILLOW CREEK-RIRIE DAM11-28-2022INFLOW (KAF)71448
1LWRI1LITTLE WOOD-LITTLE WOOD DAM11-28-2022INFLOW (KAF)81553
2DEDI1DEADWOOD-NEAR LOWMAN11-28-2022INFLOW (KAF)121963
3ARDW1ENTIAT-NEAR ARDENVOIR11-28-2022DISCHARGE (KAF)132652
4HOTI1BRUNEAU-NEAR HOT SPRINGS11-28-2022DISCHARGE (KAF)133340
5BERO3MALHEUR-AGENCY VALLEY DAM11-28-2022INFLOW (KAF)132356
6BUDW1BUMPING-BUMPING LAKE DAM11-28-2022INFLOW (KAF)153937
7HWRI1BIG LOST-AT HOWELL RANCH NEAR CHILLY11-28-2022DISCHARGE (KAF)171893
8WRMO3MALHEUR-WARM SPRINGS DAM11-28-2022INFLOW (KAF)174143
9BULO3BULLY CREEK-BULLY CREEK DAM11-28-2022INFLOW (KAF)184407
10STRM8ST. REGIS-NEAR ST. REGIS11-28-2022DISCHARGE (KAF)194739
11SATI1ST MARIES-NEAR SANTA11-28-2022DISCHARGE (KAF)237232
12MAGI1BIG WOOD-MAGIC DAM11-28-2022INFLOW (KAF)242981
13TNAW1TEANAWAY-BELOW FORKS11-28-2022DISCHARGE (KAF)275846
14KADW1KACHESS-KACHESS DAM11-28-2022INFLOW (KAF)285156
15KEDW1YAKIMA-KEECHELUS LAKE11-28-2022INFLOW (KAF)295356
16HALI1BIG WOOD-AT HAILEY11-28-2022DISCHARGE (KAF)303880
17MACI1BIG LOST-MACKAY RESERVOIR NEAR MACKAY11-28-2022INFLOW (KAF)313882
18PIHI1PORTNEUF-AT POCATELLO11-28-2022DISCHARGE (KAF)405572
19MYKO3MCKAY CREEK-NEAR PILOT ROCK11-28-2022DISCHARGE (KAF)4035114
20RILW1TIETON-RIMROCK LAKE NEAR RIMROCK11-28-2022INFLOW (KAF)427656
21DLGM8CLARK FORK-AT DEER LODGE11-28-2022DISCHARGE (KAF)435284
22EASW1YAKIMA-AT EASTON11-28-2022DISCHARGE (KAF)448154
23WGCM8MF FLATHEAD-NEAR WEST GLACIER11-28-2022DISCHARGE (KAF)4615929
24RCCM8ROCK CREEK-NEAR CLINTON11-28-2022DISCHARGE (KAF)4846105
25CLUW1CLE ELUM-CLE ELUM LAKE11-28-2022INFLOW (KAF)4911542
26GIBO3UMATILLA-NEAR GIBBON11-28-2022DISCHARGE (KAF)505591
27NACW1NACHES-NEAR NACHES11-28-2022DISCHARGE (KAF)5317929
28CLFW1NACHES-NEAR CLIFFDEL11-28-2022DISCHARGE (KAF)5413141
29CSDI1NF PAYETTE-CASCADE DAM11-28-2022INFLOW (KAF)5710555
30CHDW1CHELAN-LAKE CHELAN DAM11-28-2022INFLOW (KAF)6220231
31LAUW1KETTLE-AT LAURIER11-28-2022DISCHARGE (KAF)6515043
32ARAI1SF BOISE-ANDERSON RANCH DAM11-28-2022INFLOW (KAF)658576
33TEAI1TETON-NEAR ST. ANTHONY11-28-2022DISCHARGE (KAF)719773
34PATW1METHOW-NEAR PATEROS11-28-2022DISCHARGE (KAF)7310768
35IPDI1HENRYS FORK-ISLAND PARK DAM11-28-2022INFLOW (KAF)7810575
36JLKW4SNAKE-JACKSON LAKE AT DAM11-28-2022INFLOW (KAF)7911668
37CHEI1FALL RIVER-NEAR CHESTER11-28-2022DISCHARGE (KAF)10111390
38DRMM8CLARK FORK-NR DRUMMOND11-28-2022DISCHARGE (KAF)11112688
39BONM8BLACKFOOT-NEAR BONNER11-28-2022DISCHARGE (KAF)11114079
40FCFM8NF FLATHEAD-NEAR COLUMBIA FALLS11-28-2022DISCHARGE (KAF)11517765
41UMAO3UMATILLA-NEAR UMATILLA11-28-2022DISCHARGE (KAF)11613486
42PDTO3UMATILLA-AT PENDLETON11-28-2022DISCHARGE (KAF)11914284
43PRTI1PRIEST-NEAR PRIEST RIVER11-28-2022DISCHARGE (KAF)12423852
44HHWM8SF FLATHEAD-HUNGRY HORSE DAM11-28-2022INFLOW (KAF)12524851
45BIGI1BOISE-AT GLENWOOD BRIDGE11-28-2022DISCHARGE (KAF)12765196
46MONO3NF JOHN DAY-AT MONUMENT11-28-2022DISCHARGE (KAF)13023156
47PESW1WENATCHEE-AT PESHASTIN11-28-2022DISCHARGE (KAF)13633840
48OWYO3OWYHEE-OWYHEE DAM11-28-2022INFLOW (KAF)13715489
49WSRI1WEISER-NEAR WEISER11-28-2022DISCHARGE (KAF)15918984
50BITM8BITTERROOT-NEAR MISSOULA11-28-2022DISCHARGE (KAF)16021076
51LUCI1BOISE-LUCKY PEAK DAM11-28-2022INFLOW (KAF)16418987
52TCHW1WALLA WALLA-NEAR TOUCHET11-28-2022DISCHARGE (KAF)17719690
53TONW1OKANOGAN-NEAR TONASKET11-28-2022DISCHARGE (KAF)19131261
54UMTW1YAKIMA-AT UMTANUM11-28-2022DISCHARGE (KAF)20334160
55SERO3JOHN DAY-AT SERVICE CK11-28-2022DISCHARGE (KAF)20836457
56UNDW1WHITE SALMON-NEAR UNDERWOOD11-28-2022DISCHARGE (KAF)22128478
57JKSW4SNAKE-NEAR JACKSON11-28-2022DISCHARGE (KAF)24231577
58PARI1BOISE-NEAR PARMA11-28-2022DISCHARGE (KAF)267202132
59HODO3HOOD-NEAR TUCKER BRIDGE11-28-2022DISCHARGE (KAF)267248108
60ABOM8CLARK FORK-ABOVE MISSOULA11-28-2022DISCHARGE (KAF)28233584
61TRYO3GRANDE RONDE-TROY11-28-2022DISCHARGE (KAF)28550357
62ALPW4SNAKE-NEAR ALPINE11-28-2022DISCHARGE (KAF)29137578
63EMMI1PAYETTE-NEAR EMMETT11-28-2022DISCHARGE (KAF)29236081
64ANTI1HENRYS FORK-AT ST. ANTHONY11-28-2022DISCHARGE (KAF)30138079
65PITW1KLICKITAT-NEAR PITT11-28-2022DISCHARGE (KAF)31837286
66PARW1YAKIMA-NEAR PARKER11-28-2022DISCHARGE (KAF)34657760
67REXI1HENRYS FORK-AT REXBURG11-28-2022DISCHARGE (KAF)35043680
68ORFI1CLEARWATER-AT OROFINO11-28-2022DISCHARGE (KAF)417100242
69BELM8CLARK FORK-BELOW MISSOULA11-28-2022DISCHARGE (KAF)44355680
70DWRI1NF CLEARWATER-DWORSHAK DAM11-28-2022INFLOW (KAF)45579957
71PLDI1SF SNAKE-PALISADES DAM11-28-2022INFLOW (KAF)46758380
72KIOW1YAKIMA-AT KIONA11-28-2022DISCHARGE (KAF)47282957
73HEII1SNAKE-NEAR HEISE11-28-2022DISCHARGE (KAF)496383129
74SRGM8CLARK FORK-AT ST REGIS11-28-2022DISCHARGE (KAF)54674773
75SNAI1SNAKE-AT BLACKFOOT11-28-2022DISCHARGE (KAF)58659499
76BFTI1SNAKE-NEAR BLACKFOOT11-28-2022DISCHARGE (KAF)588582101
77SPOW1SPOKANE-AT SPOKANE11-28-2022DISCHARGE (KAF)609131446
78LYDM8KOOTENAI-LIBBY DAM11-28-2022INFLOW (KAF)61183373
79SHYI1SNAKE-NEAR SHELLEY11-28-2022DISCHARGE (KAF)65167996
80COEI1COEUR D ALENE-COEUR D ALENE LAKE11-28-2022INFLOW (KAF)670120656
81SIFI1SNAKE-AB EAGLE ROCK NR IDAHO FALLS11-28-2022DISCHARGE (KAF)67167599
82CFMM8FLATHEAD-AT COLUMBIA FALLS11-28-2022DISCHARGE (KAF)83995388
83WHBI1SALMON-AT WHITEBIRD11-28-2022DISCHARGE (KAF)846107079
84LLKW1SPOKANE-AT LONGLAKE11-28-2022INFLOW (KAF)879158356
85KERM8FLATHEAD-SELI’Š KSANKA QLISPE’ DAM11-28-2022INFLOW (KAF)939141266
86MODO3DESCHUTES-AT MOODY NR BIGGS11-28-2022DISCHARGE (KAF)991141570
87SPDI1CLEARWATER-AT SPALDING11-28-2022DISCHARGE (KAF)1040188455
88AFRI1SNAKE-AMERICAN FALLS RESERVOIR11-28-2022INFLOW (KAF)12041203100
89SWAI1SNAKE-BELOW SWAN FALLS11-28-2022DISCHARGE (KAF)1727187892
90LEOI1KOOTENAI-AT LEONIA11-28-2022DISCHARGE (KAF)2045240385
91NOXM8CLARK FORK-NOXON RAPIDS DAM11-28-2022INFLOW (KAF)2421312777
92CABI1CLARK FORK-CABINET GORGE DAM11-28-2022INFLOW (KAF)2673357575
93WEII1SNAKE-AT WEISER11-28-2022DISCHARGE (KAF)2737298092
94ALFW1PEND OREILLE-ALBENI FALLS DAM11-28-2022INFLOW (KAF)2965405373
95BRNI1SNAKE-BROWNLEE DAM11-28-2022INFLOW (KAF)2975321293
96ANAW1SNAKE-NEAR ANATONE11-28-2022DISCHARGE (KAF)4157554775
97LGSW1SNAKE-LITTLE GOOSE DAM11-28-2022INFLOW (KAF)5187755669
98LGDW1SNAKE-LOWER GRANITE DAM11-28-2022INFLOW (KAF)5188752069
99LMNW1SNAKE-LOWER MONUMENTAL DAM11-28-2022INFLOW (KAF)5615768673
100IHDW1SNAKE-ICE HARBOR DAM11-28-2022INFLOW (KAF)5615771673
101CIBW1COLUMBIA-AT INTL BOUNDARY11-28-2022DISCHARGE (KAF)162261992381
102GCDW1COLUMBIA-GRAND COULEE DAM11-28-2022INFLOW (KAF)172262169679
103CHJW1COLUMBIA-CHIEF JOSEPH DAM11-28-2022INFLOW (KAF)201962386185
104WELW1COLUMBIA-WELLS DAM11-28-2022INFLOW (KAF)204452450783
105RRHW1COLUMBIA-ROCKY REACH DAM11-28-2022INFLOW (KAF)207212489983
106WANW1COLUMBIA-WANAPUM DAM11-28-2022INFLOW (KAF)208672552282
107PRWW1COLUMBIA-PRIEST RAPIDS DAM11-28-2022INFLOW (KAF)208672559482
108MCDW1COLUMBIA-MCNARY DAM11-28-2022INFLOW (KAF)270923444279
109JDAO3COLUMBIA-JOHN DAY DAM11-28-2022INFLOW (KAF)286083612479
110TDAO3COLUMBIA-THE DALLES DAM11-28-2022INFLOW (KAF)287883674778
111BONO3COLUMBIA-BONNEVILLE DAM11-28-2022INFLOW (KAF)295753849777
112BFEI1KOOTENAI-AT BONNERS FERRY11-28-2022STAGE (FT)MMM
113HOPI1PEND OREILLE-PEND OREILLE LAKE NR HOPE11-28-2022LAKE ELEVATION (FT)MMM
114SJMI1ST JOE-AT ST MARIES11-28-2022STAGE (FT)MMM
115MILI1SNAKE-AT MILNER11-28-2022DISCHARGE (KAF)M55M